Lake Okeechobee Weather Center

Moon Phase Calendar



Lake Okeechobee Water Level
Online Cameras

 


      

Current Conditions in Pahokee
1/28/2023 1:43:22 AM

57°F
Feels Like 56
Clouds
Humidity
72%
Pressure
30.27"
Wind
15.4 mph (NNE)
Dew Point
48°F
UV Index
0/10 (Low)
Visibility
6 mi

Hourly Forecast

Date & Time Sat, Jan 28
1:00 AM
Sat, Jan 28
2:00 AM
Sat, Jan 28
3:00 AM
Sat, Jan 28
4:00 AM
Sat, Jan 28
5:00 AM
Sat, Jan 28
6:00 AM
Sat, Jan 28
7:00 AM
Sat, Jan 28
8:00 AM
Sat, Jan 28
9:00 AM
Sat, Jan 28
10:00 AM
Sat, Jan 28
11:00 AM
Sat, Jan 28
12:00 PM
Sat, Jan 28
1:00 PM
Sat, Jan 28
2:00 PM
Sat, Jan 28
3:00 PM
Sat, Jan 28
4:00 PM
Sat, Jan 28
5:00 PM
Sat, Jan 28
6:00 PM
Sat, Jan 28
7:00 PM
Sat, Jan 28
8:00 PM
Sat, Jan 28
9:00 PM
Sat, Jan 28
10:00 PM
Sat, Jan 28
11:00 PM
Sun, Jan 29
12:00 AM
Sun, Jan 29
1:00 AM
Sun, Jan 29
2:00 AM
Sun, Jan 29
3:00 AM
Sun, Jan 29
4:00 AM
Sun, Jan 29
5:00 AM
Sun, Jan 29
6:00 AM
Sun, Jan 29
7:00 AM
Sun, Jan 29
8:00 AM
Sun, Jan 29
9:00 AM
Sun, Jan 29
10:00 AM
Sun, Jan 29
11:00 AM
Sun, Jan 29
12:00 PM
Sun, Jan 29
1:00 PM
Sun, Jan 29
2:00 PM
Sun, Jan 29
3:00 PM
Sun, Jan 29
4:00 PM
Sun, Jan 29
5:00 PM
Sun, Jan 29
6:00 PM
Sun, Jan 29
7:00 PM
Sun, Jan 29
8:00 PM
Sun, Jan 29
9:00 PM
Sun, Jan 29
10:00 PM
Sun, Jan 29
11:00 PM
Mon, Jan 30
12:00 AM
Condition
Clouds

Clouds

Clouds

Clouds

Clouds

Clouds

Clouds

Clouds

Clouds

Clouds

Clouds

Clouds

Clouds

Clouds

Clouds

Clouds

Clouds

Clouds

Clouds

Clouds

Clouds

Clouds

Clouds

Clouds

Clouds

Clouds

Clouds

Clouds

Clouds

Clouds

Clouds

Clear

Clear

Clear

Clear

Clear

Clear

Clouds

Clouds

Clouds

Clouds

Clouds

Clouds

Clouds

Clouds

Clouds

Clouds

Clouds
Temperature 59°F57°F59°F60°F61°F63°F65°F66°F67°F68°F69°F70°F71°F71°F71°F70°F70°F69°F69°F69°F69°F69°F69°F69°F70°F69°F69°F69°F69°F69°F69°F69°F70°F72°F73°F74°F74°F74°F74°F75°F74°F74°F73°F72°F72°F72°F72°F71°F
Feels Like 58°F56°F58°F59°F60°F63°F65°F66°F67°F68°F69°F70°F71°F71°F71°F70°F70°F70°F69°F69°F69°F70°F70°F70°F70°F70°F70°F70°F70°F69°F69°F69°F71°F72°F74°F74°F75°F75°F75°F75°F75°F74°F73°F73°F72°F73°F73°F72°F
Cloudiness 100%100%100%100%100%100%100%100%100%100%100%99%99%100%100%100%100%100%100%100%100%100%100%100%100%100%100%100%94%87%80%0%0%0%0%3%7%47%57%64%67%68%70%69%71%76%75%63%
Visibility 6 mi6 mi6 mi6 mi6 mi6 mi6 mi6 mi6 mi6 mi6 mi6 mi6 mi6 mi6 mi6 mi6 mi6 mi6 mi6 mi6 mi6 mi6 mi6 mi6 mi6 mi6 mi6 mi6 mi6 mi6 mi6 mi6 mi6 mi6 mi6 mi6 mi6 mi6 mi6 mi6 mi6 mi6 mi6 mi6 mi6 mi6 mi6 mi
Precipitation 0%0%0%0%0%0%0%0%0%0%0%0%0%0%0%0%0%0%0%0%0%0%0%0%0%0%0%0%0%0%0%0%0%0%0%0%0%0%0%0%0%0%0%0%0%0%0%0%
Humidity 71%72%72%71%71%71%71%72%73%72%70%70%70%70%70%72%74%75%76%77%78%78%78%78%78%79%80%80%80%80%81%81%77%72%70%69%69%69%70%68%70%73%77%80%83%85%87%89%
Dew Point 49°F48°F50°F50°F52°F54°F56°F57°F58°F59°F59°F60°F61°F61°F61°F61°F61°F61°F61°F62°F62°F62°F62°F62°F62°F63°F63°F63°F63°F63°F63°F63°F63°F63°F63°F63°F63°F64°F64°F64°F64°F65°F65°F66°F66°F67°F68°F68°F
Pressure 30.27"30.27"30.27"30.27"30.27"30.27"30.3"30.3"30.33"30.33"30.33"30.3"30.27"30.24"30.24"30.27"30.27"30.27"30.3"30.3"30.3"30.3"30.3"30.27"30.27"30.24"30.24"30.24"30.24"30.24"30.24"30.24"30.27"30.27"30.27"30.24"30.21"30.15"30.15"30.15"30.15"30.15"30.15"30.15"30.18"30.15"30.15"30.15"
Wind Speed 15 mph15.4 mph16 mph16.5 mph17 mph17.3 mph17.7 mph17.6 mph17.4 mph17.8 mph18.1 mph17.1 mph15.3 mph14.7 mph14.5 mph14.7 mph15.4 mph16 mph15.4 mph14.9 mph14.3 mph13.4 mph13.3 mph12.4 mph12 mph11.8 mph11.7 mph12.5 mph13 mph13.4 mph13.2 mph12.9 mph13.6 mph13.8 mph13.3 mph12.7 mph11.9 mph12.4 mph11 mph11 mph11.3 mph11 mph11.2 mph11.3 mph9.9 mph9.3 mph7.9 mph7.2 mph
Wind
Direction
21°
NNE
20°
NNE
18°
NNE
20°
NNE
24°
NNE
32°
NNE
38°
NE
48°
NE
56°
NE
65°
ENE
70°
ENE
73°
ENE
75°
ENE
74°
ENE
74°
ENE
69°
ENE
63°
ENE
64°
ENE
61°
ENE
65°
ENE
70°
ENE
75°
ENE
80°
E
83°
E
82°
E
78°
ENE
77°
ENE
78°
ENE
73°
ENE
78°
ENE
82°
E
80°
E
83°
E
89°
E
91°
E
94°
E
98°
E
101°
E
98°
E
96°
E
93°
E
87°
E
86°
E
96°
E
92°
E
97°
E
98°
E
116°
ESE

Daily Forecast

Date High Low Precip. Humidity
Today
Jan 28

Clouds
71 °F
57 °F
0%
70%
Sunday
Jan 29

Clear
75 °F
69 °F
0%
69%
Monday
Jan 30

Clear
77 °F
70 °F
2%
77%
Tuesday
Jan 31

Clear
77 °F
70 °F
0%
75%
Wednesday
Feb 1

Rain
75 °F
70 °F
20%
73%
Thursday
Feb 2

Clear
78 °F
70 °F
17%
70%
Friday
Feb 3

Rain
78 °F
70 °F
85%
73%
Saturday
Feb 4

Rain
74 °F
68 °F
54%
71%
Sunday
Feb 5

Rain
77 °F
69 °F
52%
69%
Monday
Feb 6

Rain
76 °F
63 °F
42%
60%
Tuesday
Feb 7

Clear
69 °F
58 °F
0%
49%
Wednesday
Feb 8

Clear
74 °F
65 °F
0%
55%
Thursday
Feb 9

Clouds
76 °F
70 °F
0%
61%
Friday
Feb 10

Clear
77 °F
70 °F
0%
62%
Saturday
Feb 11

Rain
78 °F
70 °F
33%
57%
Sunday
Feb 12

Rain
76 °F
70 °F
62%
67%

Temperature 8-14 Day Outlook



Precipitation 8-14 Day Outlook




Quick Links
Lake Okeechobee News
Lake Okeechobee Photos
Lake Okeechobee Videos




About Us
Contact Us
Site Map
Search Site
Advertise With Us
   
Okeechobee.USLakes.info
THE LAKE OKEECHOBEE WEBSITE

Copyright 2023, Lakes Online
Privacy    |    Legal